Theta_e
297 297 297 297 297 297 297 297 298 298 298 299 312 313 316 315 311 312 307 306 309 310 310 308 306 305 303 303 300 301 300 299 298 298 298 299 298 301 300 299 300 300 298 297 297 296 301 300 299 300 300 300 300 300
296 296 296 296 296 296 297 297 297 298 298 298 299 306 311 313 313 314 313 312 311 311 311 311 311 309 306 305 304 302 301 301 301 297 295 295 300 295 299 301 297 299 300 298 298 299 300 301 302 302 300 300 300 301
295 295 295 295 295 295 295 295 296 296 296 297 299 300 299 303 310 310 310 311 311 311 311 309 310 309 309 308 305 304 301 303 302 301 299 296 297 296 299 298 299 297 299 298 298 298 300 301 301 302 301 300 300 300
295 295 295 295 295 295 295 295 295 295 295 295 297 302 305 303 302 306 308 308 309 308 305 309 309 309 309 308 307 305 303 302 302 301 302 292 295 299 297 298 298 299 298 298 297 300 301 301 301 301 300 300 300 299
295 295 295 295 295 295 294 294 294 294 294 294 295 298 306 305 304 303 302 304 306 306 303 307 307 307 308 307 306 305 304 302 302 301 298 296 299 298 296 295 293 298 298 298 303 305 302 301 301 301 300 300 300 299
294 294 294 294 294 294 294 293 293 293 293 293 294 295 299 304 306 303 306 306 306 305 305 299 304 303 304 304 303 302 302 302 302 302 300 301 301 300 290 293 298 302 303 303 303 303 302 301 300 300 300 300 299 298
293 293 293 294 293 293 294 294 294 293 293 294 293 294 295 301 306 302 304 305 305 304 304 300 300 302 302 301 301 301 301 301 302 302 300 299 300 300 287 290 302 303 303 303 303 302 300 301 301 300 300 299 298 297
293 293 292 293 294 294 295 295 295 295 296 300 297 295 296 300 303 306 304 303 304 305 303 297 297 301 300 301 301 301 301 301 301 301 299 298 299 298 293 297 303 302 301 302 302 303 302 301 300 300 299 299 298 297
292 293 293 294 295 296 296 297 299 297 298 300 298 298 298 300 303 302 303 303 303 303 301 298 300 297 300 300 300 300 300 297 299 297 297 298 297 297 297 300 303 302 301 302 303 303 302 300 300 299 298 298 298 296
293 294 295 296 296 297 298 300 300 299 298 299 299 298 302 302 303 303 303 303 303 302 302 301 300 294 301 299 299 299 299 295 299 299 299 299 300 301 301 303 303 303 302 301 301 300 300 300 299 299 299 298 297 294
294 296 297 298 299 300 299 299 299 299 297 299 299 299 300 301 301 302 302 301 301 300 300 299 300 300 300 300 300 300 299 297 300 296 299 300 298 301 302 303 304 303 302 301 301 301 300 300 300 299 298 298 295 293
297 298 299 299 299 299 299 299 299 299 297 299 299 300 299 300 300 301 300 301 301 301 301 301 301 301 301 300 301 300 301 297 298 295 299 299 298 301 303 303 302 302 301 300 300 300 300 299 299 299 298 296 294 293
298 298 299 299 300 299 298 299 299 299 298 299 299 299 298 299 298 299 301 301 301 299 300 300 298 300 300 300 300 301 302 300 295 298 298 296 298 302 301 301 300 301 301 300 300 300 299 299 299 298 297 295 294 293
298 298 299 299 299 299 299 299 299 299 299 298 299 297 297 297 298 298 296 296 299 299 299 299 299 300 300 299 300 303 302 297 296 298 296 295 299 304 305 305 304 304 302 299 299 299 299 299 298 297 295 294 294 292
298 298 299 299 299 299 299 299 299 300 299 298 298 298 297 296 296 297 298 298 299 300 300 299 299 299 298 299 299 299 300 294 295 296 295 300 303 302 303 303 304 305 302 299 299 299 299 298 298 296 295 294 293 292
297 298 299 298 297 298 298 298 299 299 299 299 298 297 295 294 294 296 298 298 299 299 300 299 296 298 299 297 299 300 297 295 295 293 300 302 302 303 301 303 304 304 303 299 299 299 298 298 297 296 295 294 293 292
297 298 298 297 297 298 298 299 299 299 299 297 296 298 298 296 297 297 297 299 299 299 294 296 298 297 296 299 299 295 295 295 300 301 300 300 301 301 301 303 302 303 303 303 298 298 298 298 296 295 295 294 293 292
297 298 297 297 298 298 298 299 299 299 299 298 296 297 299 299 298 298 298 298 298 299 298 299 298 299 299 296 296 298 298 300 300 300 300 300 300 300 302 302 302 302 302 302 299 298 298 297 296 296 295 293 293 292
297 297 297 297 298 298 298 299 299 298 298 299 299 298 299 299 300 300 299 299 299 299 299 299 299 297 299 299 299 299 299 299 299 299 299 300 300 301 301 301 302 301 302 301 298 299 299 298 297 296 295 293 293 292
296 296 296 297 298 299 299 299 298 299 299 298 298 299 299 299 299 299 299 299 298 298 298 299 300 299 300 300 299 299 300 300 299 300 300 300 300 300 300 301 301 301 302 302 299 298 298 297 296 295 295 294 292 292
297 297 297 298 298 298 299 298 297 298 300 299 299 298 298 299 298 298 298 298 297 299 299 299 300 300 300 300 300 300 300 299 299 299 299 299 300 300 300 300 300 301 301 301 301 299 298 298 297 296 295 294 293 292
297 297 298 298 299 299 299 299 298 298 297 298 297 298 297 296 298 298 298 298 298 299 299 299 299 300 299 300 299 299 299 299 299 300 300 300 300 300 300 300 300 300 301 301 301 299 299 299 297 296 295 294 292 292
299 300 300 299 299 298 297 298 297 297 298 297 296 295 295 296 298 299 299 298 299 299 299 299 299 299 299 299 299 299 299 299 299 299 299 299 300 300 300 300 300 299 300 301 301 299 298 298 297 296 295 293 292 291
300 299 299 299 299 297 294 295 296 296 297 297 298 295 297 297 297 297 297 298 299 300 300 300 299 299 299 299 299 299 299 299 299 299 299 299 299 299 300 300 300 300 301 301 300 299 298 297 296 295 295 293 292 291
299 297 298 296 297 294 294 296 297 297 298 298 298 296 296 297 298 298 297 298 299 299 299 300 299 299 299 299 299 299 298 298 298 298 298 299 299 299 299 299 299 299 300 300 300 299 298 297 296 295 294 293 292 291
298 297 296 295 294 294 294 295 297 297 298 298 299 297 296 298 299 297 294 299 299 299 299 299 298 298 298 298 297 298 298 298 298 298 298 298 298 298 298 298 298 298 299 299 298 298 297 296 296 295 294 293 292 291
299 296 295 296 296 296 295 295 297 297 298 298 297 296 296 297 295 294 298 298 297 297 297 297 298 298 297 296 295 296 297 298 298 298 298 298 298 298 297 297 297 298 298 298 298 297 297 296 295 295 294 292 292 291
297 295 296 294 294 296 294 295 296 297 297 296 295 296 294 294 294 296 296 296 296 297 297 298 298 296 295 294 294 295 296 297 297 297 297 297 298 298 298 298 297 297 297 298 298 297 295 295 295 294 293 292 291 290
295 295 295 292 294 295 295 295 296 297 297 296 296 295 294 296 296 296 296 296 296 297 297 296 294 293 293 294 294 296 296 296 296 296 296 296 296 296 296 297 296 296 296 295 296 295 294 294 293 293 292 291 290 290
294 296 295 295 295 296 295 295 296 296 296 297 296 295 295 296 296 296 296 296 296 295 294 292 292 292 292 292 292 293 293 293 294 294 295 294 294 294 295 295 295 295 294 294 294 294 293 292 292 292 291 290 290 289
295 295 293 293 293 293 294 294 295 295 295 295 295 295 295 295 295 296 295 295 294 292 291 291 291 291 291 291 291 292 292 293 292 293 293 293 293 294 294 294 294 294 293 293 292 292 292 291 291 291 290 289 289 288
294 293 293 293 293 293 293 293 293 294 293 293 293 294 294 294 294 293 292 292 291 290 291 291 290 291 291 291 291 290 291 291 292 291 292 292 292 292 292 292 292 292 292 291 291 291 291 291 290 290 289 289 288 288
292 292 292 292 293 293 293 293 293 292 293 292 293 293 293 293 293 291 290 290 290 289 289 290 290 290 290 290 290 290 290 290 290 290 290 290 291 291 291 290 290 290 291 290 290 290 291 291 290 289 289 288 288 288
Wind_Speed
9 7 6 6 6 7 7 8 8 8 9 9 6 6 6 5 6 7 7 7 8 4 8 7 7 7 5 5 4 7 3 2 3 2 3 3 3 4 1 4 6 7 7 4 3 3 9 14 8 7 6 10 8 9
8 7 6 5 5 6 7 8 9 10 10 10 9 8 7 7 7 8 7 9 10 7 8 16 16 14 15 12 5 13 2 5 9 4 1 2 2 1 4 4 1 3 7 5 11 9 6 20 15 14 6 6 9 9
10 10 10 10 9 9 10 10 10 10 11 10 10 9 11 11 10 8 8 9 10 8 13 9 3 7 15 17 14 7 7 9 7 7 8 3 3 4 4 6 4 5 8 4 1 8 27 28 30 31 26 19 14 11
13 13 14 14 14 14 14 13 13 12 12 11 11 10 8 9 10 6 8 9 8 5 4 4 3 3 5 8 15 19 20 9 8 10 5 3 3 12 4 3 4 6 10 5 7 21 27 28 24 25 22 17 13 12
15 15 16 16 18 18 17 17 15 14 14 13 13 12 9 9 9 8 10 10 9 6 3 9 19 20 17 17 14 15 16 15 11 6 4 3 4 3 3 0 4 13 8 5 8 23 19 21 15 8 9 13 14 13
17 16 16 16 17 18 17 16 15 14 14 14 14 13 13 11 8 7 3 5 10 7 4 3 4 5 7 8 12 9 12 12 14 6 5 6 5 6 3 4 10 24 31 36 32 29 25 21 13 13 15 14 12 12
18 17 17 16 15 15 13 13 13 13 13 13 13 13 12 12 10 4 4 3 9 9 3 6 5 2 1 2 4 7 11 8 9 6 7 5 6 10 2 4 21 29 25 24 27 36 28 32 25 17 14 12 11 12
18 16 15 13 12 11 9 9 10 9 8 8 9 9 9 9 8 13 11 14 11 6 4 2 4 5 3 2 2 5 5 7 6 6 3 5 4 7 5 16 41 44 26 30 32 30 32 29 23 18 14 13 12 12
16 15 14 11 10 9 8 8 7 8 6 7 7 5 6 6 7 11 12 13 11 9 3 4 2 3 4 3 2 3 3 0 5 4 5 6 3 7 10 28 43 35 29 31 26 19 24 26 23 18 17 14 13 14
16 15 13 12 11 9 7 5 5 6 5 6 5 4 4 4 7 5 5 4 7 8 8 7 8 2 5 5 1 1 2 2 3 5 5 4 6 30 43 46 49 51 45 33 29 25 20 19 19 18 18 13 13 11
16 16 15 13 11 9 8 7 6 6 5 4 3 2 3 2 3 4 3 5 5 3 7 5 12 7 5 3 3 5 2 3 3 4 5 4 5 21 21 27 32 31 28 28 28 26 23 18 13 16 16 13 11 9
17 16 14 13 11 11 10 9 9 9 4 4 1 3 3 4 5 3 3 4 4 4 5 4 5 9 6 7 4 7 3 2 6 7 2 4 4 10 21 26 27 23 21 20 16 16 17 17 14 12 12 10 9 8
17 16 16 15 15 13 12 12 13 10 8 5 4 3 4 6 5 6 7 4 3 5 9 9 3 7 6 7 4 3 5 5 7 3 4 4 18 24 31 33 30 24 18 17 13 11 13 14 14 12 8 7 7 8
18 18 18 17 17 16 16 14 14 14 10 7 4 5 5 6 6 6 5 4 6 8 16 15 5 4 4 4 4 4 4 3 3 4 5 3 15 24 31 34 34 27 32 21 13 12 14 15 13 9 7 7 7 9
20 21 21 20 19 18 17 17 17 19 12 7 7 7 9 10 10 5 16 6 7 11 19 9 4 6 4 3 4 3 3 5 5 4 3 9 14 17 27 31 29 24 36 24 18 14 16 15 13 9 7 7 8 8
21 22 24 21 20 19 20 20 20 23 8 11 11 6 4 4 7 9 10 13 14 17 14 4 4 3 6 4 4 7 3 6 4 4 13 14 22 32 28 22 25 24 33 28 17 16 16 16 13 8 8 8 8 7
20 26 23 19 20 20 21 22 20 13 9 9 10 25 16 8 9 15 19 17 16 23 4 5 5 12 3 3 4 4 5 5 23 32 34 31 30 30 25 24 23 24 24 36 21 19 19 15 14 13 11 8 8 8
26 24 20 20 19 19 23 26 15 11 15 18 10 17 25 26 25 26 25 23 24 23 12 6 6 5 5 7 8 14 25 36 39 41 45 47 40 30 28 27 29 23 24 31 22 19 21 20 20 16 10 8 9 7
27 25 22 19 18 21 10 13 24 9 20 23 28 29 25 24 30 31 27 27 31 30 16 6 6 5 10 20 26 36 35 33 34 38 39 40 36 32 32 32 29 21 21 26 21 20 23 24 19 13 11 10 9 7
26 26 24 22 21 19 10 10 11 13 13 16 23 21 24 26 29 32 32 33 33 16 12 6 10 33 32 35 34 34 37 33 31 35 36 34 35 34 33 27 27 23 22 20 20 19 22 23 21 19 14 11 9 9
24 27 26 25 28 30 9 8 11 9 9 10 12 25 17 21 27 26 25 22 20 12 13 34 40 46 45 43 44 38 38 36 37 37 38 37 42 38 35 32 27 19 19 21 23 24 26 26 23 18 15 13 9 8
29 27 27 28 22 13 16 16 9 8 9 5 7 14 7 7 12 14 14 17 13 37 38 39 41 40 40 43 45 39 38 37 39 41 42 42 41 38 37 35 28 27 27 24 21 23 27 26 21 19 17 13 11 9
27 26 27 19 15 15 7 15 12 10 5 6 9 5 4 6 7 11 9 14 23 30 33 38 44 45 43 45 41 41 38 37 39 40 40 39 39 39 36 34 31 30 27 27 25 23 23 24 20 20 17 15 14 12
28 16 13 15 17 7 10 11 9 7 8 5 4 4 4 8 9 5 5 12 27 26 25 32 33 37 34 34 37 40 38 36 36 37 35 32 34 35 31 31 29 29 25 21 22 19 20 23 22 22 20 19 17 14
10 12 9 6 9 7 7 7 5 4 5 5 6 4 3 9 4 4 5 7 12 22 26 26 28 31 33 34 33 32 28 26 29 31 28 24 26 27 27 27 26 24 23 24 24 23 20 23 25 23 21 21 19 14
8 13 14 12 8 7 7 8 10 8 4 6 6 5 8 3 4 7 3 8 19 21 20 19 18 18 18 18 18 19 17 16 16 19 22 23 23 23 24 23 24 29 29 27 25 21 21 24 26 24 22 21 17 14
7 4 7 10 10 7 5 4 9 4 7 6 4 5 4 5 6 5 7 11 10 11 10 9 9 11 14 16 16 15 16 16 16 15 15 12 10 11 13 17 22 22 21 23 23 22 20 23 25 23 20 20 17 15
6 11 8 13 7 10 5 5 6 7 4 6 10 7 8 8 5 3 5 6 6 5 5 7 10 11 10 10 11 11 11 9 8 9 10 10 10 10 10 7 3 1 3 11 14 15 16 18 18 18 19 19 17 15
6 12 15 5 6 7 10 7 6 12 9 15 7 5 5 7 6 6 6 6 6 7 8 8 8 7 6 7 8 6 5 4 5 6 6 6 5 5 2 2 4 6 7 8 9 13 16 15 12 14 15 15 15 15
9 21 5 7 4 5 6 8 6 9 14 11 7 4 5 4 4 6 8 7 7 8 7 5 4 4 3 2 3 3 3 3 4 4 5 4 4 5 3 4 3 5 7 10 11 11 12 12 13 16 17 15 15 15
20 7 5 4 3 4 5 7 8 9 10 9 7 5 3 2 3 6 9 9 8 6 3 2 1 1 1 1 1 1 2 2 3 4 4 4 3 2 4 5 6 9 8 7 8 12 13 13 15 14 14 13 13 14
7 5 5 4 3 6 9 6 6 4 5 5 4 5 3 3 2 3 5 6 7 4 3 3 3 1 1 1 0 1 2 2 2 2 2 2 2 2 3 5 6 6 6 8 9 10 12 13 14 13 13 12 13 12
5 5 7 6 5 6 6 5 3 2 2 3 3 4 5 4 3 4 4 5 6 7 6 5 5 4 4 3 2 2 2 3 3 3 3 3 3 3 3 3 4 5 8 9 8 10 15 16 14 14 13 13 13 13
Wind_Direction
249 257 269 286 303 311 315 325 331 326 328 324 292 316 342 346 354 3 11 11 18 323 285 253 248 219 195 190 153 160 107 202 82 150 150 220 176 227 274 194 183 174 166 198 149 194 282 172 141 184 214 156 196 272
231 239 250 264 281 297 308 314 319 323 326 322 328 300 287 299 314 322 330 329 325 307 278 288 278 264 252 249 230 185 229 168 186 105 227 113 217 160 181 250 141 245 204 184 187 212 255 196 230 241 226 240 281 258
241 249 258 266 273 281 288 293 296 299 302 305 305 306 310 303 288 294 318 323 324 303 294 287 297 266 248 248 240 227 232 223 205 199 166 179 219 133 192 233 200 245 188 227 79 225 241 249 255 256 260 269 287 282
250 261 269 274 276 278 279 279 282 285 285 286 288 293 283 299 323 330 308 309 319 303 280 279 295 308 281 255 242 240 248 229 225 205 204 156 182 197 231 258 194 211 154 211 259 279 276 272 268 272 263 265 265 280
253 261 270 277 280 281 282 283 280 278 279 279 277 274 280 288 294 320 321 305 281 256 271 284 287 283 272 253 246 239 240 238 216 181 193 226 218 186 230 347 229 200 198 185 247 264 253 271 288 232 225 268 271 277
255 261 267 272 276 277 276 275 277 275 275 276 274 270 262 262 282 324 307 67 61 45 305 322 287 276 265 255 230 226 229 232 221 219 228 236 220 209 209 236 248 245 236 238 247 270 271 277 268 252 273 270 262 276
259 262 265 267 268 267 267 272 275 273 273 272 270 268 265 254 249 250 261 267 330 347 301 302 292 356 323 203 165 204 216 218 227 241 234 236 215 208 228 237 266 270 266 260 260 257 262 265 269 279 266 258 260 285
263 264 262 259 259 262 267 272 273 276 277 293 283 275 271 246 254 240 261 271 278 301 246 233 284 320 211 156 141 167 194 208 232 242 239 227 247 220 256 242 262 266 267 263 262 259 261 267 268 267 251 245 264 292
268 266 258 252 250 253 257 266 276 282 261 282 297 282 266 241 237 261 260 263 250 225 260 188 196 256 168 134 147 164 190 228 243 237 231 181 234 231 231 250 263 272 259 269 274 266 262 257 257 257 244 244 269 287
259 250 244 242 240 241 238 252 272 290 259 276 286 236 211 206 223 258 242 223 207 212 224 229 209 273 172 158 124 23 203 240 251 227 191 226 261 266 258 265 275 278 277 274 264 255 248 238 237 230 237 248 267 280
246 241 238 235 232 222 222 226 238 266 271 263 250 223 235 199 213 236 245 194 189 235 222 246 234 228 201 154 180 211 228 210 251 246 194 248 262 265 288 286 288 291 286 277 272 270 266 257 248 232 232 247 262 276
242 237 236 234 224 221 224 217 226 231 226 218 194 232 234 226 229 223 224 200 205 237 191 198 216 205 191 188 162 191 231 197 251 147 238 254 273 350 318 307 309 307 302 293 281 257 245 238 235 225 229 251 266 279
241 237 232 232 225 224 219 209 223 221 213 188 234 237 211 218 220 219 198 193 200 196 190 183 151 166 169 197 202 208 227 229 124 206 234 259 329 336 356 343 338 348 322 305 279 244 223 219 210 218 237 262 276 293
234 233 232 231 227 224 217 209 217 209 196 198 212 241 211 210 217 207 194 177 179 186 177 169 149 175 173 179 229 245 216 149 230 236 243 283 357 354 350 345 341 354 346 309 294 259 219 208 208 220 256 278 286 304
231 232 234 234 231 223 216 209 213 207 198 193 207 235 222 214 223 228 213 179 169 183 159 153 168 182 185 236 218 262 231 245 219 227 231 314 354 353 331 322 319 324 333 320 283 241 214 207 215 235 263 279 290 309
233 239 235 232 228 219 215 212 210 212 218 212 226 228 208 182 225 204 192 210 207 182 165 171 144 187 225 224 202 220 219 223 246 222 255 273 299 310 311 296 318 319 327 331 291 243 220 219 226 248 259 273 284 291
233 235 240 233 220 217 212 213 213 210 229 228 232 227 228 250 227 226 220 214 202 175 187 159 179 215 179 211 223 206 210 218 262 275 279 268 288 305 296 293 316 316 309 321 300 248 232 229 227 240 255 273 273 264
232 236 234 230 219 218 222 217 213 216 232 235 235 238 229 241 239 242 240 230 201 202 197 216 197 188 219 216 244 246 245 263 271 276 280 284 288 295 288 301 312 311 298 309 294 253 235 231 235 246 253 262 256 262
234 231 230 222 213 216 220 221 213 232 233 237 244 244 240 247 254 257 252 239 233 234 229 214 225 209 229 237 245 259 264 265 266 270 276 285 288 290 299 304 300 287 294 307 286 250 236 237 242 246 251 252 269 261
231 231 228 225 215 222 220 234 217 225 230 240 237 234 232 243 255 253 248 242 230 217 222 221 232 242 251 256 256 258 264 264 266 273 276 279 285 289 295 298 294 288 284 278 286 248 233 231 232 236 245 254 258 254
230 230 228 227 229 226 247 230 213 226 217 220 240 224 231 248 245 235 235 228 205 219 230 235 246 253 255 257 262 264 267 269 271 270 270 277 284 285 286 291 289 263 265 283 278 254 233 230 237 237 240 248 253 256
234 233 230 222 221 216 227 223 216 207 201 222 192 208 225 217 223 226 227 203 225 235 236 247 249 254 259 260 262 265 269 273 271 270 271 273 273 277 282 288 279 265 269 283 269 259 243 235 231 230 235 240 234 238
235 231 211 195 201 210 228 195 187 196 202 199 177 187 225 215 220 192 212 224 241 249 246 248 254 256 257 265 269 272 273 273 273 273 274 273 275 278 278 277 273 264 268 265 259 262 246 235 229 228 229 226 223 237
229 194 191 192 194 197 172 180 191 190 200 185 183 213 210 206 177 219 249 249 251 260 256 258 261 261 262 264 268 275 282 284 281 280 277 272 271 275 276 276 271 270 260 252 265 250 241 223 222 222 222 224 221 231
196 193 195 179 190 154 167 168 175 192 213 182 195 224 199 170 199 236 244 267 259 259 265 267 267 265 266 274 278 282 288 286 283 283 284 280 279 276 273 273 266 257 245 248 245 243 233 217 219 218 221 220 219 227
210 196 183 181 165 159 173 180 197 190 169 182 215 172 155 186 218 239 237 254 259 265 268 262 265 270 273 279 281 287 296 299 287 278 281 276 270 269 270 266 257 250 251 259 238 232 221 216 215 215 217 216 216 227
191 179 173 173 170 159 171 172 162 168 181 198 178 151 167 211 231 243 238 247 247 246 249 254 270 281 291 295 293 289 292 296 275 285 301 302 288 287 281 266 263 269 262 230 215 213 221 221 210 214 217 215 213 225
164 164 167 182 187 174 154 175 176 186 180 195 158 185 189 201 233 218 211 215 217 230 252 270 282 289 293 300 304 304 298 302 304 289 286 290 289 288 286 278 244 309 216 208 209 203 205 211 215 221 218 214 217 220
150 171 148 166 146 187 208 195 199 195 193 177 183 198 217 209 218 217 222 225 234 260 276 286 283 282 295 317 326 320 313 332 348 348 350 335 341 343 329 270 204 176 166 176 191 205 207 211 214 214 210 211 218 225
161 163 137 163 172 204 213 203 196 185 185 192 209 204 200 219 232 236 242 249 265 274 280 274 271 285 296 352 358 11 353 317 315 337 335 314 312 305 302 292 239 197 188 186 194 206 204 195 194 197 197 206 220 223
147 140 111 131 182 199 183 180 172 179 189 200 212 226 230 242 262 253 248 255 258 264 265 239 260 23 79 56 12 302 297 294 304 321 325 327 313 258 232 226 233 209 195 201 209 205 203 200 202 207 211 217 220 224
143 162 142 118 134 161 156 185 171 167 176 194 206 211 221 222 263 253 242 239 233 210 216 218 212 205 152 157 274 318 320 302 277 287 279 279 269 260 237 212 212 223 218 209 211 214 214 209 206 212 221 228 226 227
103 103 106 113 135 169 174 153 144 123 183 204 221 217 214 211 249 227 237 226 225 217 216 215 222 230 243 241 243 266 296 307 307 287 273 268 279 260 223 217 222 209 201 203 210 217 214 211 215 224 234 234 234 236